www.pogodaiklimat.ru

Погода и климат >> Архив погоды >> Норвегия >> Шиботн


ПОГОДА в Шиботне

  • Прогноз погоды в Шиботне
  • Монитор погоды в Шиботне

АРХИВ ПОГОДЫ в Шиботне

Время (UTC), дата Ветер
(напр.,м/с)
 
Видим.   Явления Облачность Т
(С)
Тd
(С)
f
(%)
Тe
(С)
Тes
(С)
Комфортность P
(гПа)
Po
(гПа)
Тmin
(С)
Tmax
(С)
R
(мм)
R24
(мм)
S
(см)
07 12.08 СЗ 1-3
{4}
н/о н/о +18.1 +12.6 70 +19 +19 1003.9 1001.6
08 12.08 З 2-3
{3}
н/о н/о +17.2 +12.3 73 +18 +18 1003.9 1001.6
09 12.08 З 1-3
{3}
н/о н/о +17.9 +12.1 69 +19 +19 1003.9 1001.6
10 12.08 Ю 1-2
{3}
н/о н/о +18.5 +12.5 68 +20 +20 1003.8 1001.5
11 12.08 СЗ 2-3
{4}
н/о н/о +20.6 +12.6 60 +23 +23 комфорт 1003.7 1001.5
12 12.08 З 2-4
{4}
н/о н/о +21.3 +12.5 57 +24 +24 комфорт 1003.4 1001.2
13 12.08 СЗ 2-3
{4}
н/о н/о +20.1 +12.4 61 +23 +23 комфорт 1003.4 1001.2
14 12.08 В 1-3
{5}
н/о н/о +19.8 +12.8 64 +23 +23 комфорт 1003.3 1001.0
15 12.08 В 2-5
{5}
н/о н/о +16.7 +11.6 72 +17 +17 1003.5 1001.2
16 12.08 В 1-3
{5}
н/о н/о +16.4 +12.0 75 +17 +17 1003.8 1001.5
17 12.08 ЮВ 1-2
{3}
н/о н/о +15.7 +11.7 77 +16 +16 1004.1 1001.7
18 12.08 ЮВ 1-2
{5}
н/о н/о +14.7 +11.5 81 +15 +15 1004.2 1001.9 +14.7 +21.7
19 12.08 ЮВ 1-2
{3}
н/о н/о +14.2 +11.2 82 +15 +15 1004.4 1002.1
20 12.08 Ю 1-2
{2}
н/о н/о +13.6 +10.6 82 +14 +14 1004.5 1002.2
21 12.08 штиль 0-1
{2}
н/о н/о +12.8 +10.4 85 +12 +12 1004.9 1002.6
22 12.08 ЮВ 1-3
{3}
н/о н/о +12.2 +10.1 87 +12 +12 1005.2 1002.9
23 12.08 СВ 1-1
{3}
н/о н/о +11.2 +9.3 88 +11 +11 1005.4 1003.0
00 13.08 В 1-2
{3}
н/о н/о +10.3 +8.9 91 +10 +10 1005.3 1003.0
01 13.08 штиль 0-1
{1}
н/о н/о +10.8 +9.4 91 +10 +10 1005.5 1003.1
02 13.08 штиль 0
{1}
н/о н/о +10.6 +9.4 92 +10 +10 1005.5 1003.2
03 13.08 штиль 0-1
{1}
н/о н/о +11.3 +10.1 92 +11 +11 1005.7 1003.3
04 13.08 Ю 1-1
{1}
н/о н/о +11.6 +10.2 91 +11 +11 1005.5 1003.2
05 13.08 ЮВ 1-1
{2}
н/о н/о +12.4 +10.8 90 +12 +12 1005.5 1003.2
06 13.08 С 1-2
{2}
н/о н/о +12.7 +10.6 87 +13 +13 1005.6 1003.2 +10.0 +14.7
07 13.08 СЗ 1-2
{2}
н/о н/о +13.4 +10.9 85 +14 +14 1005.5 1003.1
08 13.08 З 2-3
{3}
н/о н/о +14.0 +10.8 81 +13 +13 1005.4 1003.1
09 13.08 З 1-2
{3}
н/о н/о +14.2 +10.8 80 +15 +15 1005.3 1002.9
10 13.08 Ю 1-2
{2}
н/о н/о +14.8 +11.0 78 +15 +15 1005.3 1002.9
11 13.08 З 2-3
{4}
н/о н/о +14.9 +11.1 78 +15 +15 1005.2 1002.8
12 13.08 ЮВ 1-1
{4}
н/о н/о +15.1 +11.5 79 +16 +16 1005.1 1002.8
13 13.08 Ю 1-2
{2}
н/о н/о +15.0 +11.4 79 +16 +16 1004.8 1002.5
14 13.08 З 1-2
{2}
н/о н/о +15.5 +11.5 77 +16 +16 1004.7 1002.4
15 13.08 З 1-2
{2}
н/о н/о +15.5 +11.5 77 +16 +16 1004.4 1002.1
16 13.08 Ю 1-2
{2}
н/о н/о +15.3 +11.5 78 +16 +16 1004.3 1002.0
17 13.08 В 1-2
{2}
н/о н/о +15.0 +11.4 79 +16 +16 1004.2 1001.9
18 13.08 ЮВ 1-2
{2}
н/о н/о +14.1 +11.1 82 +14 +14 1004.2 1001.8 +12.7 +15.9
19 13.08 ЮВ 1-2
{2}
н/о н/о +13.5 +10.9 84 +14 +14 1004.2 1001.8
20 13.08 штиль 0-1
{2}
н/о н/о +13.1 +10.8 86 +13 +13 1004.2 1001.8
21 13.08 штиль 0-1
{1}
н/о н/о +12.6 +10.7 88 +12 +12 1004.2 1001.9
22 13.08 В 1-2
{2}
н/о н/о +11.1 +9.4 89 +11 +11 1003.9 1001.6
23 13.08 В 1-1
{2}
н/о н/о +10.0 +8.6 91 +9 +9 1003.6 1001.3
00 14.08 штиль 0-1
{2}
н/о н/о +10.1 +8.9 92 +9 +9 1003.5 1001.2
01 14.08 штиль 0-1
{1}
н/о н/о +9.8 +8.6 92 +9 +9 1003.4 1001.1
02 14.08 штиль 0-1
{1}
н/о н/о +9.2 +8.1 93 +8 +8 1003.2 1000.9
03 14.08 штиль 0-1
{1}
н/о н/о +9.6 +8.5 93 +9 +9 1003.3 1000.9
04 14.08 штиль 0-1
{1}
н/о н/о +11.2 +10.1 93 +10 +10 1003.3 1000.9
05 14.08 штиль 0-1
{1}
н/о н/о +12.0 +10.9 93 +11 +11 1003.2 1000.9
06 14.08 ЮВ 1-1
{2}
н/о н/о +12.6 +11.5 93 +13 +13 1003.2 1000.9 +9.1 +14.1
07 14.08 ЮВ 1-2
{2}
н/о н/о +14.3 +12.0 86 +15 +15 1003.2 1000.9
08 14.08 З 2-3
{4}
н/о н/о +14.9 +11.1 78 +15 +15 1003.0 1000.7
09 14.08 З 2-4
{4}
н/о н/о +15.8 +11.4 75 +16 +16 1002.9 1000.6
10 14.08 З 2-3
{4}
н/о н/о +16.7 +11.4 71 +17 +17 1002.9 1000.6
11 14.08 З 2-3
{4}
н/о н/о +16.9 +11.4 70 +17 +17 1003.0 1000.7
12 14.08 СЗ 2-5
{5}
н/о н/о +16.9 +11.0 68 +17 +17 1002.9 1000.6
13 14.08 З 2-4
{5}
н/о н/о +16.4 +10.5 68 +17 +17 1002.9 1000.6
14 14.08 СЗ 3-5
{5}
н/о н/о +15.8 +10.1 69 +15 +15 1002.9 1000.6
15 14.08 СЗ 3-6
{6}
н/о н/о +15.3 +9.9 70 +15 +15 1003.0 1000.7
16 14.08 СЗ 2-4
{6}
н/о н/о +14.5 +9.5 72 +14 +14 1003.3 1000.9
17 14.08 ЮВ 2-3
{4}
н/о н/о +13.3 +9.7 79 +13 +13 1003.5 1001.2
18 14.08 В 1-3
{6}
н/о н/о +12.9 +9.7 81 +13 +13 1003.7 1001.3 +12.6 +17.6
19 14.08 В 1-3
{3}
н/о н/о +12.5 +9.7 83 +13 +13 1003.8 1001.5
20 14.08 В 1-2
{3}
н/о н/о +11.9 +9.5 85 +12 +12 1004.0 1001.6
21 14.08 З 1-1
{2}
н/о н/о +11.5 +9.8 89 +11 +11 1004.0 1001.6
22 14.08 В 1-2
{2}
н/о н/о +11.2 +9.8 91 +11 +11 1004.0 1001.7
23 14.08 штиль 0
{1}
н/о н/о +11.0 +9.6 91 +10 +10 1003.9 1001.6
00 15.08 В 1-1
{3}
н/о н/о +10.9 +9.7 92 +11 +11 1003.9 1001.5 4
01 15.08 штиль 0-1
{1}
н/о н/о +10.9 +9.7 92 +10 +10 1003.9 1001.5
02 15.08 штиль 0-1
{1}
н/о н/о +11.0 +9.9 93 +10 +10 1003.8 1001.5
03 15.08 штиль 0-1
{1}
н/о н/о +11.0 +9.9 93 +10 +10 1003.8 1001.4
04 15.08 штиль 0-1
{1}
н/о н/о +11.1 +10.0 93 +10 +10 1003.8 1001.4
05 15.08 штиль 0-1
{1}
н/о н/о +11.0 +9.9 93 +10 +10 1003.8 1001.5
06 15.08 З 1-2
{2}
н/о н/о +11.2 +10.1 93 +11 +11 1004.0 1001.7 +10.8 +12.9 4
07 15.08 штиль 0-1
{2}
н/о н/о +11.3 +10.2 93 +11 +11 1004.2 1001.8
08 15.08 СЗ 2-4
{4}
н/о н/о +11.4 +10.3 93 +10 +10 1004.1 1001.8
09 15.08 З 2-4
{4}
н/о н/о +11.5 +10.3 92 +10 +10 1004.3 1002.0
10 15.08 ЮЗ 1-2
{3}
н/о н/о +12.1 +10.7 91 +12 +12 1004.5 1002.1
11 15.08 СЗ 2-4
{4}
н/о н/о +12.7 +10.4 86 +12 +12 1004.5 1002.2
12 15.08 С 2-4
{4}
н/о н/о +12.8 +10.2 84 +12 +12 1004.6 1002.3
13 15.08 С 1-2
{4}
н/о н/о +12.9 +10.3 84 +13 +13 1004.9 1002.6
14 15.08 СЗ 1-3
{4}
н/о н/о +12.3 +9.7 84 +12 +12 1005.1 1002.8
15 15.08 С 2-3
{3}
н/о н/о +11.6 +9.2 85 +10 +10 1005.5 1003.1
16 15.08 ЮЗ 1-1
{2}
н/о н/о +11.2 +9.1 87 +11 +11 1006.1 1003.7
17 15.08 СЗ 1-3
{3}
н/о н/о +10.6 +8.7 88 +10 +10 1006.4 1004.0
18 15.08 СЗ 1-2
{4}
н/о н/о +10.2 +8.5 89 +10 +10 1006.7 1004.3 +10.2 +13.0
19 15.08 В 1-1
{3}
н/о н/о +10.1 +8.5 90 +10 +10 1006.8 1004.5
20 15.08 ЮВ 1-1
{1}
н/о н/о +9.8 +8.4 91 +9 +9 1007.2 1004.8
21 15.08 штиль 0-1
{1}
н/о н/о +9.6 +8.2 91 +9 +9 1007.2 1004.9
22 15.08 В 1-2
{2}
н/о н/о +9.5 +8.3 92 +9 +9 1007.4 1005.0
23 15.08 ЮВ 1-1
{2}
н/о н/о +9.5 +8.3 92 +9 +9 1007.5 1005.1
00 16.08 ЮВ 1-2
{3}
н/о н/о +9.5 +8.3 92 +9 +9 1007.5 1005.1
01 16.08 ЮВ 1-1
{1}
н/о н/о +9.5 +8.4 93 +9 +9 1007.4 1005.1
02 16.08 В 1-1
{2}
н/о н/о +9.5 +8.4 93 +9 +9 1007.5 1005.1
03 16.08 штиль 0-1
{1}
н/о н/о +9.5 +8.4 93 +9 +9 1007.4 1005.0
04 16.08 ЮВ 1-1
{2}
н/о н/о +9.5 +8.4 93 +9 +9 1007.4 1005.1
05 16.08 В 1-1
{2}
н/о н/о +10.0 +8.9 93 +9 +9 1007.4 1005.0
06 16.08 СЗ 1-2
{2}
н/о н/о +10.8 +9.6 92 +10 +10 1007.3 1004.9 +9.4 +10.8
07 16.08 СЗ 1-2
{2}
н/о н/о +10.9 +9.3 90 +11 +11 1007.0 1004.7
08 16.08 З 1-2
{2}
н/о н/о +11.2 +9.3 88 +11 +11 1006.8 1004.4
09 16.08 З 1-2
{2}
н/о н/о +11.5 +9.4 87 +11 +11 1006.5 1004.1
10 16.08 СЗ 1-3
{3}
н/о н/о +12.7 +10.3 85 +13 +13 1006.3 1003.9
11 16.08 З 2-3
{3}
н/о н/о +12.5 +9.9 84 +12 +12 1005.9 1003.5
12 16.08 СЗ 1-2
{4}
н/о н/о +12.2 +9.8 85 +12 +12 1005.4 1003.0
13 16.08 З 1-1
{2}
н/о н/о +12.4 +9.6 83 +12 +12 1005.1 1002.7
14 16.08 С 1-1
{3}
н/о н/о +12.5 +9.9 84 +13 +13 1004.9 1002.6
15 16.08 СВ 1-1
{2}
н/о н/о +12.5 +10.1 85 +12 +12 1004.8 1002.4
16 16.08 СЗ 1-2
{2}
н/о н/о +12.2 +10.3 88 +12 +12 1004.6 1002.3
17 16.08 ЮВ 1-2
{2}
н/о н/о +12.7 +10.6 87 +13 +13 1004.5 1002.2
18 16.08 С 1-2
{3}
н/о н/о +11.7 +10.0 89 +11 +11 1005.1 1002.8 +10.8 +12.8 1
19 16.08 ЮВ 1-3
{3}
н/о н/о +10.8 +9.6 92 +10 +10 1004.6 1002.3
20 16.08 СВ 1-1
{2}
н/о н/о +9.4 +8.2 92 +9 +9 1004.8 1002.4
21 16.08 В 1-1
{2}
н/о н/о +9.9 +8.8 93 +9 +9 1005.3 1002.9
22 16.08 ЮВ 1-1
{3}
н/о н/о +10.1 +9.0 93 +10 +10 1005.6 1003.2
23 16.08 В 1-3
{3}
н/о н/о +10.1 +9.2 94 +10 +10 1004.8 1002.4
00 17.08 штиль 0-1
{3}
н/о н/о +9.1 +8.2 94 +8 +8 1004.7 1002.4 3
01 17.08 штиль 0
{1}
н/о н/о +9.0 +8.1 94 +8 +8 1005.0 1002.6
02 17.08 ЮВ 1-1
{2}
н/о н/о +9.5 +8.6 94 +9 +9 1005.5 1003.1
03 17.08 СЗ 1-1
{1}
н/о н/о +9.2 +8.3 94 +8 +8 1005.5 1003.1
04 17.08 ЮВ 1-1
{2}
н/о н/о +9.2 +8.3 94 +8 +8 1005.4 1003.1
05 17.08 Ю 1-1
{2}
н/о н/о +9.6 +8.7 94 +9 +9 1005.7 1003.3
06 17.08 В 1-1
{2}
н/о н/о +11.0 +10.1 94 +11 +11 1005.7 1003.4 +8.9 +11.7 4
07 17.08 СВ 1-1
{2}
н/о н/о +13.1 +11.7 91 +13 +13 1005.8 1003.4
08 17.08 СЗ 2-3
{3}
н/о н/о +14.9 +11.3 79 +15 +15 1005.6 1003.3
09 17.08 СЗ 2-3
{3}
н/о н/о +15.9 +10.0 68 +16 +16 1005.5 1003.2
10 17.08 З 1-2
{3}
н/о н/о +16.0 +8.5 61 +17 +17 1005.4 1003.1
11 17.08 СЗ 1-3
{3}
н/о н/о +17.5 +7.8 53 +19 +19 1005.1 1002.8
12 17.08 З 2-4
{4}
н/о н/о +18.3 +9.7 57 +19 +19 1004.6 1002.3
13 17.08 З 2-3
{5}
н/о н/о +18.6 +9.4 55 +20 +20 1004.3 1002.0
14 17.08 СЗ 2-5
{5}
н/о н/о +17.6 +8.7 56 +18 +18 1003.7 1001.4
15 17.08 В 2-4
{4}
н/о н/о +15.9 +10.2 69 +16 +16 1003.9 1001.6
16 17.08 В 2-3
{4}
н/о н/о +15.4 +10.4 72 +15 +15 1003.6 1001.3
17 17.08 В 1-2
{3}
н/о н/о +14.5 +10.3 76 +15 +15 1003.5 1001.1
18 17.08 ЮВ 1-2
{5}
н/о н/о +13.5 +10.5 82 +14 +14 1003.3 1001.0 +11.0 +19.0
19 17.08 СВ 1-2
{2}
н/о н/о +12.9 +10.4 85 +13 +13 1003.0 1000.6
20 17.08 штиль 0-2
{2}
н/о н/о +12.0 +10.1 88 +11 +11 1002.3 1000.0
21 17.08 СВ 1-2
{2}
н/о н/о +12.0 +10.3 89 +12 +12 1001.9 999.6
22 17.08 Ю 2-3
{3}
н/о н/о +12.7 +11.3 91 +12 +12 1001.5 999.2
23 17.08 СЗ 2-4
{4}
н/о н/о +13.1 +11.8 92 +12 +12 1000.8 998.5
00 18.08 ЮВ 3-7
{7}
н/о н/о +15.8 +14.2 90 +15 +15 1000.1 997.8 2
01 18.08 ЮВ 5-11
{12}
н/о н/о +17.3 +12.6 74 +17 +17 999.5 997.2
02 18.08 В 5-10
{11}
н/о н/о +17.6 +11.9 69 +17 +17 999.0 996.7
03 18.08 ЮВ 6-11
{13}
н/о н/о +17.6 +11.4 67 +17 +17 998.8 996.5
04 18.08 ЮВ 5-10
{12}
н/о н/о +17.6 +10.7 64 +17 +17 998.7 996.4
05 18.08 ЮВ 5-9
{13}
н/о н/о +17.4 +10.8 65 +17 +17 998.9 996.6
06 18.08 ЮВ 5-11
{13}
н/о н/о +17.8 +10.4 62 +17 +17 998.6 996.4 +11.8 +17.9 2
07 18.08 В 5-10
{11}
н/о н/о +17.8 +10.4 62 +17 +17 999.2 996.9
08 18.08 ЮВ 4-9
{11}
н/о н/о +17.5 +10.9 65 +17 +17 999.7 997.4
09 18.08 ЮВ 5-9
{12}
н/о н/о +18.4 +11.0 62 +18 +18 1000.1 997.8
10 18.08 ЮВ 4-8
{12}
н/о н/о +19.6 +11.6 60 +21 +21 комфорт 1000.4 998.1
11 18.08 ЮВ 4-9
{11}
н/о н/о +19.7 +11.5 59 +21 +21 комфорт 1000.5 998.3
12 18.08 ЮВ 3-8
{12}
н/о н/о +20.7 +11.4 55 +23 +23 комфорт 1000.7 998.4
13 18.08 ЮВ 6-10
{11}
н/о н/о +20.0 +11.8 59 +21 +21 комфорт 1001.3 999.0
14 18.08 ЮВ 4-8
{13}
н/о н/о +18.5 +11.8 65 +19 +19 1001.5 999.2
15 18.08 ЮВ 5-10
{11}
н/о н/о +18.8 +11.6 63 +19 +19 1001.3 999.1
16 18.08 ЮВ 4-8
{11}
н/о н/о +18.6 +11.9 65 +19 +19 1001.5 999.2
17 18.08 ЮВ 5-10
{11}
н/о н/о +18.4 +11.9 66 +18 +18 1001.1 998.8
18 18.08 ЮВ 4-10
{13}
н/о н/о +18.6 +11.4 63 +19 +19 1001.2 998.9 +17.4 +21.7
19 18.08 ЮВ 5-12
{12}
н/о н/о +18.3 +11.6 65 +18 +18 1001.2 998.9
20 18.08 ЮВ 4-10
{10}
н/о н/о +18.3 +11.6 65 +18 +18 1001.4 999.2
21 18.08 ЮВ 5-11
{11}
н/о н/о +18.2 +11.5 65 +18 +18 1001.6 999.3
22 18.08 ЮВ 5-11
{11}
н/о н/о +18.2 +11.3 64 +18 +18 1001.6 999.3
23 18.08 ЮВ 4-9
{11}
н/о н/о +18.0 +10.9 63 +18 +18 1001.7 999.4
00 19.08 ЮВ 4-9
{12}
н/о н/о +18.1 +11.0 63 +18 +18 1001.9 999.6
01 19.08 ЮВ 3-8
{11}
н/о н/о +17.8 +10.4 62 +18 +18 1001.5 999.2
02 19.08 ЮВ 4-8
{9}
н/о н/о +17.4 +10.3 63 +17 +17 1001.7 999.4
03 19.08 ЮВ 4-8
{10}
н/о н/о +17.1 +10.3 64 +17 +17 1001.7 999.4
05 19.08 Ю 2-4
{6}
н/о н/о +16.4 +11.1 71 +17 +17 1001.4 999.1
06 19.08 Ю 2-4
{11}
н/о н/о +16.4 +12.0 75 +17 +17 1001.2 998.9 +16.3 +18.6
07 19.08 ЮВ 5-11
{11}
н/о н/о +18.4 +11.5 64 +18 +18 1000.6 998.3
08 19.08 Ю 2-4
{8}
н/о н/о +16.2 +12.4 78 +16 +16 1000.5 998.2

 

Местоположение метеостанции Шиботн (Норвегия): широта 69.38 долгота 20.28 высота над уровнем моря 20 м.

В архиве по умолчанию представлена погода в Шиботне за последнюю неделю. Архивные данные за месяц целиком и за предыдущие месяцы, начиная с января 2011 года, Вы можете получить, выбрав интересующий диапазон дат из раскрывающегося списка и нажав кнопку "Ввод!".


*Определитесь, кто Вы:
робот инопланетянин человек

Внимание! Время в таблицах - всемирное. Для получения местного времени необходимо прибавить поправку, которая равна 1 ч.

Смотрите также архив погоды в соседних городах и на ближайших метеорологических станциях:

Погода в Люнгене (Норвегия) (21 км)
Погода в Норднесфьеллете (Норвегия) (22 км)
Погода в Килписйарви (Финляндия) (42 км)
Погода на Саане (Финляндия) (43 км)
Погода в Сёрхьюсен аэропорту (Норвегия) (53 км)
Погода в Тромсё (Норвегия) (60 км)
Погода в Тромсё (Холт) (Норвегия) (61 км)
Погода в Тромсё аэропорту (Норвегия) (63 км)
Погода в Дивидалене (Норвегия) (71 км)
Погода в Бардуфоссе (Норвегия) (77 км)

Пояснения к столбцам:

Ветер - указаны скорость ветра в м/с - средняя за 10 мин, порывы в срок и между сроками (в фигурных скобках) и направление, откуда дует ветер: С - северный, СВ - северо-восточный, В - восточный, ЮВ - юго-восточный, Ю - южный, ЮЗ - юго-западный, З - западный, СЗ - северо-западный.
Видимость - горизонтальная дальность видимости в метрах или километрах. При видимости от 1 до 10 км при отсутствии осадков обычно наблюдается дымка, при ухудшении видимости до 1 км и менее - туман. В сухую погоду видимость может ухудшаться дымом, пылью или мглою.
Явления - указаны атмосферные явления, наблюдавшиеся в срок или в последний час перед сроком; фигурными скобками обозначены явления, наблюдавшиеся между сроками (за 1-3 часа до срока); квадратными скобками обозначены град или гололедные отложения с указанием их диаметра в мм.
Облачность - указаны через наклонную черту общая и нижняя облачность в баллах и высота нижней границы облаков в метрах; квадратными скобками обозначены формы облаков: Ci - перистые, Cs - перисто-слоистые, Cc - перисто-кучевые, Ac - высококучевые, As - высокослоистые, Sc - слоисто-кучевые, Ns - слоисто-дождевые, Cu - кучевые, Cb - кучево-дождевые. Подробнее классификацию облаков см. в Атласе облаков (PDF).
T - Температура воздуха - температура, измеренная на высоте 2 м над землей.
Td - Температура точки росы - температура, при понижении до которой содержащийся в воздухе водяной пар достигнет насыщения.
f - Относительная влажность воздуха - влажноcть воздуха, измеренная на высоте 2 м над землей.
Te - Эффективная температура - температура, которую ощущает одетый по сезону человек в тени. Характеристика душности погоды. При расчете учитывается влияние влажности воздуха и скорости ветра на теплоощущения человека.
Tes - Эффективная температура на солнце - температура, которую ощущает человек, с поправкой на солнечный нагрев. Характеристика знойности погоды. Зависит от высоты солнца над горизонтом, облачности и скорости ветра. Ночью, в пасмурную погоду, а также при ветре 12 м/с и более поправка равна нулю.
P - Атмосферное давление - приведенное к уровню моря атмосферное давление.
Po - Атмосферное давление - измеренное на уровне метеостанции атмосферное давление.
Tmin - Минимальная температура - минимум температуры воздуха на высоте 2 м над землей.
Tmax - Максимальная температура - максимум температуры воздуха на высоте 2 м над землей.
R - Количество осадков - Количество выпавших осадков за период времени, мм. При наведении курсора мыши на число - период времени, за который выпало указанное количество осадков.
R24 - Количество осадков - Количество выпавших осадков за 24 часа, мм.
S - Снежный покров - Высота снежного покрова, см. При наведении курсора мыши на число - состояние снежного покрова и степень покрытия местности в баллах.